Location: Unspecified
(48.5539°N, 71.6350°W)
Time: 08:01:16
(UTC-05:00)

ISS - Pass Details

Date: 26 January 2019
Orbit: 403 x 411 km, 51.6° (Epoch: 16 February)

Event Time Altitude Azimuth Distance (km) Brightness Sun altitude
Rises 21:02:13 0° 286° (WNW) 2,344 - -43.5°
Reaches altitude 10° 21:04:20 10° 291° (WNW) 1,482 - -43.8°
Maximum altitude 21:07:37 55° 11° (N) 503 - -44.3°
Drops below altitude 10° 21:10:54 10° 90° (E) 1,483 - -44.8°
Sets 21:13:01 0° 95° (E) 2,344 - -45.1°
